Location: Bazugues
(43.4465°N, 0.3432°E)
Time: 10:29:15
(UTC+00:00)

USA 238 DEB - Pass Details

Date: 12 January 2026
Orbit: 883 x 1328 km, 63.4° (Epoch: 10 January)

Event Time Altitude Azimuth Distance (km) Brightness Sun altitude
Rises 18:38:12 0° 323° (NW) 3,976 7.0 -20.1°
Reaches altitude 10° 18:40:48 10° 325° (NW) 3,073 6.4 -20.6°
Maximum altitude 18:48:18 82° 53° (NE) 1,262 3.9 -21.9°
Drops below altitude 10° 18:56:26 10° 141° (SE) 3,319 6.0 -23.4°
Enters shadow 18:56:31 10° 141° (SE) 3,349 6.0 -23.4°
